Regional Weather Roundup
Issued by NWS

Home | Current Version | Previous Version | Graphics & Text | Print | Product List | Glossary On
Versions: 1 2 3 4 5 6 7 8 9 10 11 12 13 14 15 16 17 18 19 20 21 22 23 24 25 26 27 28 29 30 31 32 33 34 35 36 37 38 39 40 41 42 43 44 45 46 47 48 49 50
000
ASUS45 KCYS 071610
RWRWY

WYOMING REGIONAL WEATHER ROUNDUP
NATIONAL WEATHER SERVICE CHEYENNE WY
1000 AM MDT TUE JUL 07 2015

NOTE:  "FAIR" INDICATES FEW OR NO CLOUDS BELOW 12,000 FEET
WITH NO SIGNIFICANT WEATHER AND/OR OBSTRUCTIONS TO VISIBILITY.

WYZ001-071700-
YELLOWSTONE NATIONAL PARK

CITY           SKY/WX    TMP DP  RH WIND       PRES   REMARKS
LK YELLOWSTONE   N/A     58  50  75 E6        30.32S
W YELLOWSTONE  NOT AVBL

$$
WYZ002>013-054>058-071-098>099-071700-
NORTHERN WYOMING

CITY           SKY/WX    TMP DP  RH WIND       PRES   REMARKS
JACKSON        FAIR      63  50  63 CALM      30.23F
CODY           FAIR      66  54  63 N7        30.14F
GREYBULL       FAIR      70  52  52 W3        30.08F
WORLAND        FAIR      64  57  78 CALM      30.09F
SHERIDAN       FAIR      66  55  67 CALM      30.09F
BUFFALO        FAIR      67  54  63 CALM      30.13F
GILLETTE       FAIR      70  56  61 S13       30.11F HAZE
HULETT         FAIR      70  55  60 SW14      30.12F
NEWCASTLE      FAIR      64  52  63 S14G20    30.16F HAZE

$$
WYZ014>020-022>026-101>103-071700-
CENTRAL WYOMING

CITY           SKY/WX    TMP DP  RH WIND       PRES   REMARKS
BIG PINEY      FAIR      62  50  64 SW5       30.26S
PINEDALE       FAIR      59  50  72 W6        30.26F
DUBOIS         FAIR      61  48  63 NW3       30.23F
LANDER         PTSUNNY   67  53  61 E6        30.16F
RIVERTON       CLOUDY    67  54  63 VRB5      30.17S
CASPER         PTSUNNY   67  52  58 CALM      30.15F
DOUGLAS        FAIR      67  55  65 SE10      30.16F HAZE

$$
WYZ021-027>030-104>119-071700-
SOUTHERN WYOMING

CITY           SKY/WX    TMP DP  RH WIND       PRES   REMARKS
EVANSTON       FAIR      62  51  67 SE5       30.25F
KEMMERER       FAIR      59  50  72 CALM      30.28S
FORT BRIDGER   MOSUNNY   63  55  77 NE3       30.28F
ROCK SPRINGS   PTSUNNY   60  53  77 W7        30.24S
DIXON          CLOUDY    62  52  68 NE3       30.24F
RAWLINS        CLOUDY    59  53  80 S3        30.24S
SARATOGA       FAIR      59  50  72 CALM      30.26S
LARAMIE        PTSUNNY   57  51  80 SE16      30.25S
CHEYENNE       LGT RAIN  54  52  93 S14G20    30.24S FOG
TORRINGTON     CLOUDY    64  54  69 SE10      30.17F
PINE BLUFFS    CLOUDY    61  50  67 S14G23    30.23S

$$



USA.gov is the U.S. government's official web portal to all federal, state and local government web resources and services.